WV6L-13 Weather Reports


time (UTC)temp
F
wind
direction
speed
knots
gust
knots
rain 1hr
in
rain 24hr
in
rain mn
in
humidity
%
barometer
mb
20260502182455 82 151 0.9 7.0 0.00 0.00 0.00 13 927.4
20260502181954 80 270 0.0 5.2 0.00 0.00 0.00 14 927.6
20260502181454 81 78 5.2 7.8 0.00 0.00 0.00 13 927.5
20260502180954 81 27 4.3 5.2 0.00 0.00 0.00 14 927.7
20260502180454 79 64 2.6 8.7 0.00 0.00 0.00 14 927.9
20260502170454 76 59 1.7 3.5 0.00 0.00 0.00 15 928.1
20260502163954 77 99 0.9 3.5 0.00 0.00 0.00 14 928.2
20260502163454 76 149 1.7 4.3 0.00 0.00 0.00 14 928.4
20260502162955 75 186 1.7 3.5 0.00 0.00 0.00 15 928.4
20260502162455 74 204 1.7 3.5 0.00 0.00 0.00 15 928.3
20260502161955 73 148 1.7 5.2 0.00 0.00 0.00 16 928.3
20260502161455 73 206 0.0 5.2 0.00 0.00 0.00 16 928.3
20260502160954 74 186 1.7 3.5 0.00 0.00 0.00 16 928.4
20260502160454 74 111 0.0 3.5 0.00 0.00 0.00 16 928.3
20260502151954 66 223 3.5 3.5 0.00 0.00 0.00 19 928.1
20260502151454 66 220 2.6 2.6 0.00 0.00 0.00 20 928.1
20260502150954 66 206 1.7 1.7 0.00 0.00 0.00 21 928.1
20260502150455 64 216 1.7 2.6 0.00 0.00 0.00 23 928.2
20260502130454 48 90 0.0 1.7 0.00 0.00 0.00 33 927.5
20260502123455 50 70 1.7 2.6 0.00 0.00 0.00 33 926.9
20260502122955 50 66 0.0 1.7 0.00 0.00 0.00 32 927.0
20260502122455 50 97 0.0 1.7 0.00 0.00 0.00 33 927.1
20260502121954 49 63 1.7 1.7 0.00 0.00 0.00 33 927.0
20260502121454 49 90 1.7 3.5 0.00 0.00 0.00 32 927.0
20260502120955 50 64 1.7 2.6 0.00 0.00 0.00 32 927.0
20260502120454 51 70 0.0 1.7 0.00 0.00 0.00 31 927.0
20260502115455 50 73 1.7 2.6 0.00 0.00 0.00 31 926.7
20260502114955 50 38 1.7 1.7 0.00 0.00 0.00 31 926.8
20260502114454 50 151 1.7 1.7 0.00 0.00 0.00 31 926.8
20260502113954 51 59 3.5 3.5 0.00 0.00 0.00 31 926.8
20260502113454 51 83 0.0 1.7 0.00 0.00 0.00 31 926.8
20260502112955 51 48 1.7 1.7 0.00 0.00 0.00 31 927.0
20260502112455 51 145 2.6 2.6 0.00 0.00 0.00 31 926.9
20260502111956 52 246 0.0 1.7 0.00 0.00 0.00 30 926.8
20260502111455 52 56 1.7 2.6 0.00 0.00 0.00 30 926.8
20260502110955 52 26 2.6 2.6 0.00 0.00 0.00 29 926.7
20260502110455 53 65 1.7 2.6 0.00 0.00 0.00 29 926.8
20260502105955 53 1.7 1.7 0.00 0.00 0.00 29 926.7
20260502105455 53 45 1.7 1.7 0.00 0.00 0.00 29 926.7
20260502104955 54 79 1.7 1.7 0.00 0.00 0.00 28 926.6
20260502104455 53 40 1.7 1.7 0.00 0.00 0.00 29 926.6
20260502103954 52 118 2.6 3.5 0.00 0.00 0.00 29 926.7
20260502103454 53 102 2.6 2.6 0.00 0.00 0.00 29 926.7
20260502102955 55 48 1.7 2.6 0.00 0.00 0.00 27 926.5
20260502102455 56 81 1.7 1.7 0.00 0.00 0.00 26 926.4
20260502101955 56 56 0.0 2.6 0.00 0.00 0.00 26 926.6
20260502101454 57 26 0.0 2.6 0.00 0.00 0.00 25 926.6
20260502100954 54 50 1.7 2.6 0.00 0.00 0.00 28 926.6
20260502100455 54 90 0.9 1.7 0.00 0.00 0.00 28 926.5
20260502091455 55 45 1.7 1.7 0.00 0.00 0.00 28 926.7
20260502090955 55 66 0.0 1.7 0.00 0.00 0.00 27 926.8
20260502090454 56 73 1.7 1.7 0.00 0.00 0.00 26 926.8
20260502071455 64 234 2.6 4.3 0.00 0.00 0.00 21 926.7
20260502070955 64 250 2.6 3.5 0.00 0.00 0.00 21 926.4
20260502070454 65 162 2.6 3.5 0.00 0.00 0.00 20 926.4
20260502065955 65 155 3.5 3.5 0.00 0.00 0.00 20 926.4
20260502065455 66 168 3.5 3.5 0.00 0.00 0.00 20 926.4
20260502064954 66 175 3.5 6.1 0.00 0.00 0.00 20 926.3
20260502064455 66 198 2.6 3.5 0.00 0.00 0.00 20 926.4
20260502063955 66 144 2.6 5.2 0.00 0.00 0.00 20 926.4
20260502063455 66 175 2.6 3.5 0.00 0.00 0.00 20 926.3
20260502062955 66 105 0.0 2.6 0.00 0.00 0.00 20 926.2
20260502062455 67 198 1.7 2.6 0.00 0.00 0.00 19 926.2
20260502061955 67 240 3.5 4.3 0.00 0.00 0.00 19 926.2
20260502061454 66 251 0.9 3.5 0.00 0.00 0.00 20 926.3
20260502060955 65 235 2.6 3.5 0.00 0.00 0.00 20 926.2
20260502060455 66 206 1.7 3.5 0.00 0.00 0.00 19 926.2
20260502055954 66 175 1.7 2.6 0.00 0.00 0.00 20 926.1
20260502055454 66 209 2.6 3.5 0.00 0.00 0.00 20 926.1
20260502054955 66 222 2.6 3.5 0.00 0.00 0.00 20 926.2
20260502054455 65 237 2.6 2.6 0.00 0.00 0.00 21 926.1
20260502053954 67 174 2.6 2.6 0.00 0.00 0.00 19 925.8
20260502053455 68 227 2.6 2.6 0.00 0.00 0.00 19 926.0
20260502052954 68 235 1.7 2.6 0.00 0.00 0.00 19 926.1
20260502052455 69 232 3.5 3.5 0.00 0.00 0.00 19 925.9
20260502051955 67 214 3.5 3.5 0.00 0.00 0.00 19 926.1
20260502051455 67 208 2.6 4.3 0.00 0.00 0.00 19 925.8
20260502050955 67 209 2.6 4.3 0.00 0.00 0.00 19 925.8
20260502050455 72 236 0.0 1.7 0.00 0.00 0.00 17 925.8
20260502045955 73 19 1.7 3.5 0.00 0.00 0.00 16 925.8
20260502045455 73 37 2.6 2.6 0.00 0.00 0.00 17 925.8
20260502044955 74 14 2.6 3.5 0.00 0.00 0.00 16 925.6
20260502044454 72 64 2.6 4.3 0.00 0.00 0.00 17 925.7
20260502043954 72 29 2.6 3.5 0.00 0.00 0.00 17 925.5
20260502043455 71 48 1.7 3.5 0.00 0.00 0.00 18 925.6
20260502042954 73 57 2.6 3.5 0.00 0.00 0.00 17 925.4
20260502042455 72 54 4.3 4.3 0.00 0.00 0.00 17 925.4
20260502041954 73 8 1.7 2.6 0.00 0.00 0.00 17 925.5
20260502041455 73 33 3.5 3.5 0.00 0.00 0.00 17 925.3
20260502040954 73 35 3.5 3.5 0.00 0.00 0.00 17 925.2
20260502040455 74 51 3.5 5.2 0.00 0.00 0.00 17 925.1
20260502035955 73 59 2.6 3.5 0.00 0.00 0.00 17 925.3
20260502035455 72 29 2.6 3.5 0.00 0.00 0.00 17 925.2
20260502034956 72 3.5 4.3 0.00 0.00 0.00 17 924.9
20260502034455 72 2 2.6 5.2 0.00 0.00 0.00 17 924.9
20260502033955 73 14 2.6 4.3 0.00 0.00 0.00 17 925.0
20260502033455 74 346 2.6 3.5 0.00 0.00 0.00 17 924.9
20260502032954 74 29 2.6 3.5 0.00 0.00 0.00 17 924.8
20260502032455 74 51 4.3 5.2 0.00 0.00 0.00 17 924.7
20260502031954 75 51 3.5 4.3 0.00 0.00 0.00 17 924.6
20260502031454 75 58 1.7 3.5 0.00 0.00 0.00 16 924.5
20260502030955 75 56 2.6 3.5 0.00 0.00 0.00 16 924.5
20260502030455 76 56 3.5 5.2 0.00 0.00 0.00 16 924.4
20260502025955 76 65 4.3 7.8 0.00 0.00 0.00 16 924.5
20260502025455 76 64 4.3 4.3 0.00 0.00 0.00 16 924.6
20260502024955 77 42 5.2 5.2 0.00 0.00 0.00 16 924.2
20260502024455 77 61 5.2 7.8 0.00 0.00 0.00 16 924.3
20260502023954 77 62 7.0 8.7 0.00 0.00 0.00 16 924.3
20260502023455 78 52 5.2 8.7 0.00 0.00 0.00 16 924.4
20260502022955 78 57 5.2 7.8 0.00 0.00 0.00 16 924.3
20260502022455 78 50 4.3 6.1 0.00 0.00 0.00 15 924.1
20260502021954 79 61 5.2 8.7 0.00 0.00 0.00 15 924.1
20260502021454 79 54 4.3 4.3 0.00 0.00 0.00 15 924.0
20260502020955 80 38 3.5 7.8 0.00 0.00 0.00 15 924.1
20260502020454 80 23 4.3 7.8 0.00 0.00 0.00 15 924.1
20260502015955 80 36 3.5 5.2 0.00 0.00 0.00 15 923.8
20260502015455 80 19 6.1 7.0 0.00 0.00 0.00 15 924.0
20260502014955 81 54 6.1 7.8 0.00 0.00 0.00 15 923.9
20260502014455 81 32 5.2 13.9 0.00 0.00 0.00 14 923.9
20260502013955 81 33 5.2 6.1 0.00 0.00 0.00 14 923.9
20260502013454 82 33 3.5 6.1 0.00 0.00 0.00 15 924.0
20260502012955 82 355 4.3 5.2 0.00 0.00 0.00 15 923.8
20260502012455 81 1.7 8.7 0.00 0.00 0.00 15 923.8
20260502011955 82 356 5.2 8.7 0.00 0.00 0.00 15 923.9
20260502011455 81 354 4.3 12.2 0.00 0.00 0.00 15 923.8
20260502010955 82 359 4.3 13.0 0.00 0.00 0.00 15 923.9
20260502010454 82 336 6.1 9.6 0.00 0.00 0.00 14 923.9
20260502005955 82 334 3.5 8.7 0.00 0.00 0.00 14 923.9
20260502005455 82 325 6.1 9.6 0.00 0.00 0.00 14 924.0
20260502004955 83 19 7.0 12.2 0.00 0.00 0.00 14 923.9
20260502004455 82 319 5.2 7.8 0.00 0.00 0.00 15 923.9
20260502003955 82 11 4.3 10.4 0.00 0.00 0.00 15 923.8
20260502003454 82 270 2.6 7.0 0.00 0.00 0.00 14 923.9
20260502002955 83 10 7.0 7.0 0.00 0.00 0.00 14 923.8
20260502002454 82 293 2.6 5.2 0.00 0.00 0.00 15 923.9
20260502001955 83 342 6.1 10.4 0.00 0.00 0.00 15 924.0
20260502001456 82 47 5.2 10.4 0.00 0.00 0.00 15 923.9
20260502000955 82 309 1.7 8.7 0.00 0.00 0.00 15 923.8
20260502000455 82 278 5.2 7.0 0.00 0.00 0.00 15 924.0
20260501235954 82 293 4.3 12.2 0.00 0.00 0.00 15 924.1
20260501235455 83 291 4.3 9.6 0.00 0.00 0.00 15 924.0
20260501234955 82 271 9.6 9.6 0.00 0.00 0.00 15 924.1
20260501234455 82 21 8.7 8.7 0.00 0.00 0.00 15 924.1
20260501233955 83 315 3.5 12.2 0.00 0.00 0.00 14 924.1
20260501233454 82 343 9.6 12.2 0.00 0.00 0.00 15 924.0
20260501232955 82 315 2.6 14.8 0.00 0.00 0.00 15 924.1
20260501232455 82 256 2.6 10.4 0.00 0.00 0.00 15 923.9
20260501231955 81 289 7.0 9.6 0.00 0.00 0.00 15 924.0
20260501231456 82 338 2.6 7.0 0.00 0.00 0.00 15 924.3
20260501230954 82 308 5.2 19.1 0.00 0.00 0.00 15 924.3
20260501230455 82 279 5.2 15.6 0.00 0.00 0.00 15 924.3
20260501225954 83 254 9.6 13.0 0.00 0.00 0.00 15 924.3
20260501225454 82 346 7.0 11.3 0.00 0.00 0.00 15 924.3
20260501224955 82 8 7.0 16.5 0.00 0.00 0.00 15 924.4
20260501224455 82 1 3.5 14.8 0.00 0.00 0.00 15 924.7
20260501223956 80 357 1.7 12.2 0.00 0.00 0.00 16 924.7
20260501223454 82 346 1.7 5.2 0.00 0.00 0.00 15 924.7
20260501222955 82 221 0.0 5.2 0.00 0.00 0.00 15 924.8
20260501222454 81 52 6.1 11.3 0.00 0.00 0.00 15 924.9
20260501221955 81 279 0.9 13.0 0.00 0.00 0.00 15 924.9
20260501221455 81 299 0.0 10.4 0.00 0.00 0.00 15 924.8
20260501220955 83 341 8.7 14.8 0.00 0.00 0.00 15 924.9
20260501220454 83 310 3.5 17.4 0.00 0.00 0.00 15 924.9
20260501215955 81 327 7.0 13.0 0.00 0.00 0.00 15 924.9
20260501215455 81 305 6.1 13.0 0.00 0.00 0.00 15 924.9
20260501214956 81 282 6.1 15.6 0.00 0.00 0.00 14 925.0
20260501214454 82 260 17.4 19.1 0.00 0.00 0.00 15 924.8
20260501213955 81 22 4.3 13.9 0.00 0.00 0.00 15 925.0
20260501213455 80 276 1.7 8.7 0.00 0.00 0.00 15 925.1
20260501212955 81 11 4.3 10.4 0.00 0.00 0.00 15 925.2
20260501212455 81 12 10.4 13.0 0.00 0.00 0.00 15 925.3
20260501211955 82 311 3.5 7.8 0.00 0.00 0.00 15 925.3
20260501211454 82 272 8.7 17.4 0.00 0.00 0.00 15 925.2
20260501210955 81 349 5.2 7.0 0.00 0.00 0.00 15 925.4
20260501210455 80 281 3.5 8.7 0.00 0.00 0.00 16 925.4
20260501205955 81 277 8.7 15.6 0.00 0.00 0.00 15 925.6
20260501205455 80 11 5.2 14.8 0.00 0.00 0.00 15 925.5
20260501204955 81 344 6.1 11.3 0.00 0.00 0.00 15 925.6
20260501204455 83 4.3 13.0 0.00 0.00 0.00 14 925.6
20260501203954 81 289 13.0 23.5 0.00 0.00 0.00 15 925.5
20260501203455 81 264 6.1 13.9 0.00 0.00 0.00 16 925.6
20260501202955 80 240 2.6 16.5 0.00 0.00 0.00 16 925.7
20260501202455 80 236 13.0 19.1 0.00 0.00 0.00 16 925.7
20260501201954 80 344 5.2 15.6 0.00 0.00 0.00 15 925.7
20260501201455 80 356 7.0 18.2 0.00 0.00 0.00 16 925.8
20260501200955 79 197 3.5 12.2 0.00 0.00 0.00 17 926.1
20260501200454 80 281 6.1 13.0 0.00 0.00 0.00 17 925.9
20260501195956 80 279 4.3 14.8 0.00 0.00 0.00 17 925.9
20260501195455 81 321 4.3 20.0 0.00 0.00 0.00 17 926.0
20260501194955 81 322 7.0 13.9 0.00 0.00 0.00 17 925.9
20260501194454 79 280 5.2 7.0 0.00 0.00 0.00 17 926.1
20260501193955 80 295 4.3 17.4 0.00 0.00 0.00 17 926.0
20260501193455 80 270 6.1 17.4 0.00 0.00 0.00 18 926.0
20260501192955 81 36 6.1 12.2 0.00 0.00 0.00 17 925.9
20260501192455 80 315 7.8 9.6 0.00 0.00 0.00 18 926.1
20260501191954 80 301 3.5 8.7 0.00 0.00 0.00 18 926.2
20260501191455 79 285 5.2 16.5 0.00 0.00 0.00 18 926.4
20260501190954 80 292 7.8 10.4 0.00 0.00 0.00 18 926.5
20260501190455 79 267 8.7 13.9 0.00 0.00 0.00 19 926.4
20260501185955 79 273 7.0 10.4 0.00 0.00 0.00 18 926.5
20260501185455 78 350 2.6 8.7 0.00 0.00 0.00 19 926.5
20260501184955 78 255 2.6 7.8 0.00 0.00 0.00 19 926.6
20260501184455 78 66 1.7 5.2 0.00 0.00 0.00 19 926.6
20260501183954 78 244 5.2 8.7 0.00 0.00 0.00 19 926.8
20260501183455 78 216 2.6 5.2 0.00 0.00 0.00 19 926.8
20260501182955 78 233 7.0 7.0 0.00 0.00 0.00 19 926.8